Hourly Data Report for September 01, 2017

All times are specified in Local Standard Time (LST). Add 1 hour to adjust for Daylight Saving Time where and when it is observed.

HALL BEACH A
NUNAVUT

68°46'33.000" N
81°14'33.000" W
9.10 m
2402354
71293
YUX

Download Data

Hourly Data (September 2017)
Hourly Data Report for September 1, 2017
Temp Definition
°C
Dew Point Temp Definition
°C
Rel Hum Definition
%
Wind Dir Definition
10's deg

Wind Spd Definition
km/h
Visibility Definition
km
Stn Press Definition
kPa
Hmdx Definition


Wind Chill Definition


Weather Definition


TIME
00:00 Legend Double Dagger 5.4 4.8 96 32 21 LegendMM 99.36     LegendNANA
01:00 Legend Double Dagger 4.8 4.1 95 32 28 LegendMM 99.42     LegendNANA
02:00 Legend Double Dagger 4.2 3.6 96 32 26 LegendMM 99.48     LegendNANA
03:00 Legend Double Dagger 2.6 1.9 95 31 32 LegendMM 99.53     LegendNANA
04:00 Legend Double Dagger 3.2 1.9 91 31 26 LegendMM 99.56     LegendNANA
05:00 Legend Double Dagger 2.6 1.8 94 31 30 LegendMM 99.61     LegendNANA
06:00 Legend Double Dagger 2.2 1.3 94 31 30 LegendMM 99.66     LegendNANA
07:00 Legend Double Dagger 2.2 0.3 87 32 34 LegendMM 99.71     LegendNANA
08:00 Legend Double Dagger 2.6 0.1 83 32 34 LegendMM 99.73     LegendNANA
09:00 Legend Double Dagger 3.4 0.6 82 33 35 LegendMM 99.75     LegendNANA
10:00 Legend Double Dagger 4.2 1.4 82 33 37 LegendMM 99.80     LegendNANA
11:00 Legend Double Dagger 4.8 2.2 83 34 41 LegendMM 99.83     LegendNANA
12:00 Legend Double Dagger 5.3 2.2 80 36 35 LegendMM 99.89     LegendNANA
13:00 Legend Double Dagger 5.7 1.9 76 35 39 LegendMM 99.94     LegendNANA
14:00 Legend Double Dagger 6.2 1.9 74 36 34 LegendMM 100.03     LegendNANA
15:00 Legend Double Dagger 6.4 1.8 72 36 30 LegendMM 100.11     LegendNANA
16:00 Legend Double Dagger 6.4 1.4 71 36 30 16.1 100.18     LegendNANA
17:00 Legend Double Dagger 6.2 1.2 70 36 32 16.1 100.24     LegendNANA
18:00 Legend Double Dagger 5.7 1.0 72 36 30 16.1 100.27     LegendNANA
19:00 Legend Double Dagger 5.2 1.4 77 34 22 16.1 100.35     LegendNANA
20:00 Legend Double Dagger 4.4 1.0 79 34 21 14.5 100.40     LegendNANA
21:00 Legend Double Dagger 3.6 1.0 83 34 21 16.1 100.45     LegendNANA
22:00 Legend Double Dagger 3.1 0.7 84 35 24 16.1 100.50     LegendNANA
23:00 Legend Double Dagger 2.7 0.4 85 34 22 16.1 100.51     LegendNANA

Notes on Data Quality.

Legend

  • E = Estimated
  • M = Missing
  • NA = Not Available
  • ‡ = Partner data that is not subject to review by the National Climate Archives
Date modified: